Regional Weather Roundup
Issued by NWS

Home | Current Version | Previous Version | Text Only | Print | Product List | Glossary Off
Versions: 1 2 3 4 5 6 7 8 9 10 11 12 13 14 15 16 17 18 19 20 21 22 23 24 25 26 27 28 29 30 31 32 33 34 35 36 37 38 39 40 41 42 43 44 45 46 47 48 49 50

222
ASUS44 KMEG 260810
RWRTN
TENNESSEE HOURLY STATE WEATHER ROUNDUP
NATIONAL WEATHER SERVICE MEMPHIS TN
300 AM CDT TUE SEP 26 2017

TNZ002-004-019-021-049-052-054-088>092-260900-
WEST TENNESSEE

CITY           SKY/WX    TMP DP  RH WIND       PRES   REMARKS
MEMPHIS INTL   CLEAR     72  66  81 CALM      29.95S
NWS MEMPHIS      N/A     67 N/A N/A MISG        N/A
JACKSON        CLEAR     66  66 100 CALM      29.96F FOG
DYERSBURG      CLEAR     68  67  96 CALM      29.96F
SOMERVILLE     CLEAR     66  66 100 CALM      29.95S
COVINGTON      CLEAR     64  64 100 CALM      29.95F
BOLIVAR        FOG       66  64  94 CALM      29.95F VSB 3/4
PARIS          PTCLDY    64  64 100 CALM      29.96S
HUNTINGDON     MOCLDY    66  66 100 CALM      29.96S
LEXINGTON      FOG       66  66 100 CALM      29.96S VSB 1/4
SELMER         CLEAR     66  66 100 CALM      29.96F
SAVANNAH       MOCLDY    64  64 100 CALM      29.96S
$$

TNZ008-025-027-028-033-062-065-066-260900-
NORTH MIDDLE TENNESSEE

CITY           SKY/WX    TMP DP  RH WIND       PRES   REMARKS
NASHVILLE      CLEAR     69  66  90 CALM      29.97F
PORTLAND       CLEAR     64  64 100 CALM      29.98S
CLARKSVILLE    CLEAR     66  63  90 CALM      29.97S
SMYRNA           N/A    N/A N/A N/A MISG        N/A
COOKEVILLE     FOG       57  57 100 CALM      29.99F VSB 1/4
GALLATIN       CLEAR     64  63  94 CALM      30.00S
CROSSVILLE     CLEAR     60  59  96 CALM      30.04S
$$

TNZ061-075-076-078-094-096-097-260900-
SOUTH MIDDLE TENNESSEE

CITY           SKY/WX    TMP DP  RH WIND       PRES   REMARKS
FAYETTEVILLE   CLEAR     66  64  94 CALM      29.97F
TULLAHOMA      CLEAR     63  61  94 CALM      30.00S
WINCHESTER     CLEAR     61  61 100 CALM      29.99F
MCMINNVILLE    CLOUDY    63  63 100 CALM      30.00S VSB 1/4
COLUMBIA       PTCLDY    64 N/A N/A CALM      29.96R
SHELBYVILLE    CLEAR     64  64 100 CALM      29.97F FOG
$$

TNZ017-018-042-046-047-260900-
NORTHEAST TENNESSEE

CITY           SKY/WX    TMP DP  RH WIND       PRES   REMARKS
TRI CITIES     PTCLDY    60  60 100 CALM      30.03F
ELIZABETHTON   PTCLDY    61  59  94 CALM      30.04F
$$

TNZ012-013-036-069-073-074-260900-
CENTRAL EAST TENNESSEE

CITY           SKY/WX    TMP DP  RH WIND       PRES   REMARKS
KNOXVILLE      CLEAR     65  60  84 CALM      29.99S
OAK RIDGE      CLEAR     64  61  90 CALM      30.01S
DOWNTOWN KNOXV CLEAR     63  63 100 CALM      29.99S FOG
GATLINBURG     CLEAR     59  57  94 CALM      29.99F
MORRISTOWN     CLEAR     64  59  82 CALM      30.00S
JACKSBORO      CLEAR     61  61 100 CALM      30.04S
$$

TNZ083-085-099-260900-
SOUTHEAST TENNESSEE

CITY           SKY/WX    TMP DP  RH WIND       PRES   REMARKS
CHATTANOOGA    CLEAR     65  62  90 CALM      29.99S
DAYTON         SUNNY     63  63 100 CALM      29.98S
$$

SKY/WX REPORTED AS FAIR MEANS FEW OR NO CLOUDS BELOW
12 THOUSAND FEET.





USA.gov is the U.S. government's official web portal to all federal, state and local government web resources and services.